Regional Weather Roundup
Issued by NWS

Home | Current Version | Previous Version | Text Only | Print | Product List | Glossary On
Versions: 1 2 3 4 5 6 7 8 9 10 11 12 13 14 15 16 17 18 19 20 21 22 23 24 25 26 27 28 29 30 31 32 33 34 35 36 37 38 39 40 41 42 43 44 45 46 47 48 49 50
000
ASUS45 KCYS 170210
RWRWY

WYOMING REGIONAL WEATHER ROUNDUP
NATIONAL WEATHER SERVICE CHEYENNE WY
800 PM MDT TUE SEP 16 2014

NOTE:  "FAIR" INDICATES FEW OR NO CLOUDS BELOW 12,000 FEET
WITH NO SIGNIFICANT WEATHER AND/OR OBSTRUCTIONS TO VISIBILITY.

WYZ001-170300-
YELLOWSTONE NATIONAL PARK

CITY           SKY/WX    TMP DP  RH WIND       PRES   REMARKS
LK YELLOWSTONE   N/A     50  41  71 CALM      30.27R
W YELLOWSTONE  NOT AVBL

$$
WYZ002>013-054>058-071-098>099-170300-
NORTHERN WYOMING

CITY           SKY/WX    TMP DP  RH WIND       PRES   REMARKS
JACKSON        PTCLDY    63  43  48 CALM      30.15S
CODY           PTCLDY    63  45  51 NW5       30.06F
GREYBULL       MOCLDY    71  41  33 W8        29.97S
WORLAND        PTCLDY    73  45  36 NE6       29.98R
SHERIDAN       PTCLDY    60  46  59 CALM      30.00R
BUFFALO        PTCLDY    64  40  41 W9        30.07S
GILLETTE       CLEAR     54  43  66 SW5       30.01S
HULETT         FAIR      64  37  36 MISG      30.03
NEWCASTLE      FAIR      70  32  24 N8        30.00

$$
WYZ014>020-022>026-101>103-170300-
CENTRAL WYOMING

CITY           SKY/WX    TMP DP  RH WIND       PRES   REMARKS
BIG PINEY      PTCLDY    62  33  33 N9        30.20S
PINEDALE       PTCLDY    61  32  33 CALM      30.21S
DUBOIS         FAIR      54  45  71 W8        30.23F
LANDER         CLEAR     72  35  25 W10       30.09R
RIVERTON       PTCLDY    69  34  27 NW9       30.06S
CASPER         MOCLDY    71  34  25 N8        30.06R
DOUGLAS        PTCLDY    71  36  27 CALM      30.04S

$$
WYZ021-027>030-104>119-170300-
SOUTHERN WYOMING

CITY           SKY/WX    TMP DP  RH WIND       PRES   REMARKS
EVANSTON       CLEAR     69  36  29 W8        30.22R
KEMMERER       PTCLDY   N/A N/A N/A CALM      30.23S
FORT BRIDGER   FAIR      69  40  35 E6        30.25
ROCK SPRINGS   MOCLDY    70  36  28 W9        30.21R
DIXON          FAIR      67  38  33 CALM      30.21S
RAWLINS        MOCLDY    72  31  22 W8        30.19R
SARATOGA       FAIR      68  32  26 SW10      30.22R
LARAMIE        CLEAR     58  34  40 W6        30.22S
CHEYENNE       CLEAR     69  34  27 N5        30.15R
TORRINGTON     PTCLDY    70  44  39 S6        29.97S
PINE BLUFFS    FAIR      64  36  34 CALM      30.08S

$$



USA.gov is the U.S. government's official web portal to all federal, state and local government web resources and services.